Radiation Dose at Monitoring Post of Fukushima Daini Nuclear Power Station
Date,Time,MP-1(microSv/h),MP-2(microSv/h),MP-3(microSv/h),MP-4(microSv/h),MP-5(microSv/h),MP-6(microSv/h),MP-7(microSv/h),Wind Direction,Wind Velocity(m/s),Rain
2015/11/08,00:00,0.503,0.280,0.511,0.471,0.449,0.229,0.199,north-northwest,2.8,No
2015/11/08,00:10,0.504,0.277,0.512,0.471,0.444,0.230,0.200,north-northwest,2.5,No
2015/11/08,00:20,0.500,0.280,0.510,0.470,0.451,0.229,0.199,northwest,3.0,No
2015/11/08,00:30,0.504,0.278,0.512,0.470,0.445,0.229,0.198,north-northwest,2.5,No
2015/11/08,00:40,0.500,0.277,0.510,0.472,0.447,0.230,0.199,north-northwest,3.1,No
2015/11/08,00:50,0.505,0.279,0.512,0.469,0.446,0.230,0.200,north-northwest,2.3,No
2015/11/08,01:00,0.499,0.277,0.511,0.470,0.447,0.228,0.200,north-northwest,2.5,No
2015/11/08,01:10,0.503,0.280,0.513,0.469,0.447,0.229,0.200,north-northwest,2.5,No
2015/11/08,01:20,0.500,0.278,0.509,0.470,0.446,0.229,0.199,north-northwest,2.8,No
2015/11/08,01:30,0.505,0.280,0.512,0.470,0.449,0.230,0.199,north-northwest,2.6,No
2015/11/08,01:40,0.503,0.279,0.511,0.469,0.444,0.229,0.201,north-northwest,3.1,No
2015/11/08,01:50,0.503,0.279,0.511,0.470,0.448,0.229,0.200,north-northwest,3.1,No
2015/11/08,02:00,0.501,0.280,0.512,0.470,0.445,0.229,0.200,north-northwest,3.6,No
2015/11/08,02:10,0.502,0.277,0.509,0.471,0.447,0.229,0.200,north-northwest,3.5,No
2015/11/08,02:20,0.502,0.281,0.514,0.470,0.446,0.231,0.200,north-northwest,3.3,No
2015/11/08,02:30,0.502,0.277,0.510,0.472,0.447,0.230,0.199,north-northwest,2.7,No
2015/11/08,02:40,0.502,0.280,0.513,0.468,0.447,0.229,0.199,north,3.0,No
2015/11/08,02:50,0.502,0.277,0.507,0.471,0.444,0.230,0.200,north-northwest,2.5,No
2015/11/08,03:00,0.502,0.279,0.514,0.470,0.450,0.229,0.200,north-northwest,1.9,No
2015/11/08,03:10,0.501,0.280,0.509,0.470,0.445,0.229,0.200,northwest,1.4,No
2015/11/08,03:20,0.505,0.279,0.513,0.471,0.450,0.230,0.201,west-northwest,0.8,No
2015/11/08,03:30,0.501,0.280,0.510,0.469,0.445,0.228,0.199,-,CALM,No
2015/11/08,03:40,0.505,0.279,0.512,0.470,0.449,0.230,0.200,north-northwest,0.5,No
2015/11/08,03:50,0.500,0.279,0.510,0.467,0.445,0.229,0.200,-,CALM,No
2015/11/08,04:00,0.505,0.278,0.511,0.472,0.448,0.229,0.201,west-southwest,1.0,No
2015/11/08,04:10,0.501,0.280,0.513,0.469,0.445,0.230,0.201,west-southwest,0.8,No
2015/11/08,04:20,0.505,0.278,0.511,0.472,0.447,0.230,0.200,south-southwest,0.5,No
2015/11/08,04:30,0.502,0.278,0.513,0.468,0.446,0.229,0.200,-,CALM,No
2015/11/08,04:40,0.504,0.279,0.510,0.470,0.448,0.228,0.200,-,CALM,No
2015/11/08,04:50,0.502,0.280,0.513,0.471,0.447,0.230,0.201,-,CALM,No
2015/11/08,05:00,0.504,0.281,0.511,0.469,0.445,0.229,0.201,-,CALM,No
2015/11/08,05:10,0.504,0.278,0.517,0.471,0.450,0.230,0.201,-,CALM,No
2015/11/08,05:20,0.502,0.281,0.509,0.469,0.445,0.230,0.200,-,CALM,No
2015/11/08,05:30,0.504,0.279,0.513,0.472,0.449,0.230,0.200,-,CALM,No
2015/11/08,05:40,0.502,0.279,0.512,0.468,0.446,0.230,0.201,south-southeast,0.5,No
2015/11/08,05:50,0.505,0.279,0.512,0.473,0.447,0.229,0.200,south-southeast,0.5,No
2015/11/08,06:00,0.500,0.279,0.513,0.470,0.446,0.230,0.201,south,1.1,No
2015/11/08,06:10,0.504,0.280,0.510,0.471,0.447,0.230,0.200,south,1.1,No
2015/11/08,06:20,0.502,0.279,0.515,0.471,0.449,0.230,0.201,southeast,0.5,Yes
2015/11/08,06:30,0.505,0.281,0.512,0.470,0.444,0.231,0.201,south-southeast,0.8,Yes
2015/11/08,06:40,0.501,0.280,0.515,0.473,0.449,0.231,0.202,east-southeast,0.6,Yes
2015/11/08,06:50,0.505,0.279,0.511,0.471,0.446,0.232,0.202,east,0.5,Yes
2015/11/08,07:00,0.504,0.281,0.513,0.473,0.451,0.230,0.202,north-northeast,0.5,Yes
2015/11/08,07:10,0.505,0.281,0.511,0.470,0.447,0.231,0.202,north-northwest,0.6,Yes
2015/11/08,07:20,0.504,0.281,0.514,0.473,0.449,0.230,0.202,north,0.9,Yes
2015/11/08,07:30,0.503,0.280,0.512,0.470,0.447,0.232,0.202,north-northeast,1.1,Yes
2015/11/08,07:40,0.506,0.281,0.514,0.474,0.449,0.231,0.201,-,CALM,Yes
2015/11/08,07:50,0.502,0.281,0.512,0.471,0.449,0.232,0.202,-,CALM,Yes
2015/11/08,08:00,0.507,0.281,0.514,0.472,0.450,0.233,0.202,-,CALM,Yes
2015/11/08,08:10,0.504,0.282,0.515,0.475,0.450,0.233,0.203,north,0.8,Yes
2015/11/08,08:20,0.507,0.282,0.512,0.471,0.447,0.233,0.203,northwest,0.6,Yes
2015/11/08,08:30,0.503,0.282,0.514,0.474,0.451,0.233,0.203,-,CALM,Yes
2015/11/08,08:40,0.508,0.282,0.511,0.471,0.446,0.233,0.203,-,CALM,Yes
2015/11/08,08:50,0.503,0.282,0.516,0.473,0.451,0.233,0.204,west,0.8,Yes
2015/11/08,09:00,0.507,0.282,0.510,0.470,0.447,0.234,0.204,north,0.9,Yes
2015/11/08,09:10,0.501,0.283,0.514,0.472,0.450,0.234,0.204,north-northeast,0.9,Yes
2015/11/08,09:20,0.507,0.283,0.511,0.470,0.448,0.234,0.204,northeast,1.2,Yes
2015/11/08,09:30,0.502,0.284,0.512,0.469,0.448,0.234,0.204,north-northeast,1.1,Yes
2015/11/08,09:40,0.504,0.281,0.511,0.469,0.449,0.233,0.203,northeast,1.2,Yes
2015/11/08,09:50,0.502,0.282,0.509,0.467,0.446,0.234,0.203,northeast,0.6,Yes
2015/11/08,10:00,0.501,0.282,0.512,0.469,0.449,0.233,0.202,east-northeast,0.5,Yes
2015/11/08,10:10,0.502,0.282,0.506,0.467,0.445,0.233,0.203,-,CALM,Yes
2015/11/08,10:20,0.500,0.282,0.510,0.470,0.449,0.233,0.202,-,CALM,Yes
2015/11/08,10:30,0.501,0.279,0.506,0.466,0.444,0.232,0.201,southeast,0.8,Yes
2015/11/08,10:40,0.498,0.283,0.510,0.470,0.449,0.231,0.201,east-southeast,1.1,Yes
2015/11/08,10:50,0.501,0.279,0.507,0.466,0.445,0.231,0.201,east-northeast,0.5,Yes
2015/11/08,11:00,0.498,0.281,0.510,0.469,0.448,0.229,0.200,south-southwest,1.9,Yes
2015/11/08,11:10,0.501,0.279,0.506,0.465,0.446,0.231,0.202,-,CALM,Yes
2015/11/08,11:20,0.496,0.281,0.509,0.466,0.447,0.230,0.200,east,0.6,Yes
2015/11/08,11:30,0.502,0.280,0.504,0.465,0.445,0.231,0.199,east,0.8,Yes
2015/11/08,11:40,0.497,0.279,0.508,0.464,0.445,0.229,0.199,east,1.4,Yes
2015/11/08,11:50,0.498,0.279,0.505,0.465,0.446,0.230,0.199,east-northeast,1.2,Yes
2015/11/08,12:00,0.496,0.279,0.506,0.465,0.445,0.230,0.198,east-northeast,0.5,Yes
2015/11/08,12:10,0.499,0.279,0.505,0.466,0.447,0.229,0.198,east-northeast,0.8,Yes
2015/11/08,12:20,0.498,0.277,0.505,0.464,0.441,0.229,0.199,east-northeast,1.0,Yes
2015/11/08,12:30,0.496,0.279,0.504,0.467,0.447,0.229,0.198,north,0.6,Yes
2015/11/08,12:40,0.496,0.278,0.504,0.462,0.445,0.229,0.198,-,CALM,Yes
2015/11/08,12:50,0.498,0.280,0.505,0.466,0.446,0.228,0.198,east-southeast,0.8,Yes
2015/11/08,13:00,0.496,0.277,0.503,0.462,0.442,0.230,0.198,east,1.5,Yes
2015/11/08,13:10,0.495,0.279,0.508,0.467,0.447,0.228,0.197,east-southeast,1.4,Yes
2015/11/08,13:20,0.497,0.277,0.503,0.463,0.442,0.229,0.198,east-southeast,1.2,Yes
2015/11/08,13:30,0.494,0.280,0.507,0.466,0.446,0.228,0.198,southeast,1.4,Yes
2015/11/08,13:40,0.496,0.277,0.503,0.463,0.443,0.228,0.197,southeast,1.4,Yes
2015/11/08,13:50,0.495,0.278,0.505,0.465,0.448,0.228,0.197,southeast,1.8,Yes
2015/11/08,14:00,0.499,0.277,0.502,0.462,0.444,0.228,0.197,southeast,1.6,Yes
2015/11/08,14:10,0.493,0.278,0.505,0.467,0.445,0.227,0.196,south-southeast,1.0,Yes
2015/11/08,14:20,0.497,0.276,0.501,0.462,0.442,0.228,0.197,south-southeast,1.9,Yes
2015/11/08,14:30,0.493,0.277,0.505,0.463,0.445,0.228,0.197,south-southeast,2.9,Yes
2015/11/08,14:40,0.495,0.277,0.502,0.461,0.442,0.228,0.197,south-southeast,2.9,Yes
2015/11/08,14:50,0.491,0.276,0.505,0.462,0.444,0.227,0.196,south,3.5,Yes
2015/11/08,15:00,0.493,0.278,0.499,0.462,0.442,0.228,0.195,south,3.6,Yes
2015/11/08,15:10,0.493,0.276,0.504,0.463,0.444,0.228,0.195,south-southeast,3.4,Yes
2015/11/08,15:20,0.495,0.277,0.501,0.463,0.444,0.227,0.196,south-southeast,3.2,Yes
2015/11/08,15:30,0.490,0.276,0.504,0.459,0.442,0.228,0.197,south,2.8,Yes
2015/11/08,15:40,0.496,0.277,0.499,0.462,0.444,0.228,0.195,south-southeast,3.1,Yes
2015/11/08,15:50,0.490,0.276,0.505,0.460,0.443,0.227,0.196,south,2.8,Yes
2015/11/08,16:00,0.495,0.278,0.500,0.463,0.444,0.228,0.196,south,3.4,Yes
2015/11/08,16:10,0.490,0.276,0.504,0.459,0.441,0.226,0.195,south,4.3,Yes
2015/11/08,16:20,0.495,0.277,0.499,0.462,0.444,0.228,0.197,south,4.5,Yes
2015/11/08,16:30,0.489,0.276,0.503,0.460,0.441,0.227,0.195,south,4.6,Yes
2015/11/08,16:40,0.493,0.276,0.498,0.462,0.444,0.227,0.195,south,4.4,Yes
2015/11/08,16:50,0.489,0.275,0.502,0.459,0.441,0.225,0.195,south-southwest,5.5,Yes
2015/11/08,17:00,0.494,0.276,0.499,0.461,0.443,0.226,0.195,south,5.7,Yes
2015/11/08,17:10,0.487,0.275,0.502,0.459,0.438,0.225,0.195,south,5.0,Yes
2015/11/08,17:20,0.494,0.276,0.498,0.463,0.444,0.226,0.195,south-southwest,3.9,Yes
2015/11/08,17:30,0.488,0.274,0.501,0.457,0.439,0.227,0.194,south,4.2,Yes
2015/11/08,17:40,0.493,0.276,0.497,0.461,0.442,0.227,0.195,south,4.4,Yes
2015/11/08,17:50,0.488,0.275,0.499,0.457,0.437,0.225,0.194,south,4.5,Yes
2015/11/08,18:00,0.490,0.275,0.494,0.458,0.442,0.225,0.195,south-southwest,4.7,Yes
2015/11/08,18:10,0.487,0.276,0.500,0.457,0.440,0.226,0.196,south,4.8,Yes
2015/11/08,18:20,0.491,0.275,0.497,0.460,0.444,0.226,0.195,south,5.6,Yes
2015/11/08,18:30,0.489,0.276,0.503,0.458,0.439,0.225,0.195,south,5.6,Yes
2015/11/08,18:40,0.492,0.275,0.496,0.459,0.444,0.225,0.195,south,3.7,Yes
2015/11/08,18:50,0.488,0.275,0.500,0.457,0.440,0.224,0.194,south,3.9,Yes
2015/11/08,19:00,0.491,0.275,0.497,0.459,0.441,0.225,0.194,south-southwest,6.1,Yes
2015/11/08,19:10,0.485,0.276,0.501,0.458,0.440,0.224,0.193,south-southwest,7.6,Yes
2015/11/08,19:20,0.490,0.274,0.495,0.458,0.442,0.225,0.194,south-southwest,7.4,Yes
2015/11/08,19:30,0.486,0.276,0.500,0.457,0.441,0.224,0.193,south-southwest,7.4,Yes
2015/11/08,19:40,0.492,0.273,0.495,0.459,0.440,0.225,0.194,south-southwest,8.0,Yes
2015/11/08,19:50,0.487,0.275,0.500,0.457,0.441,0.224,0.193,south-southwest,7.7,Yes
2015/11/08,20:00,0.488,0.272,0.493,0.457,0.440,0.225,0.193,south-southwest,9.1,Yes
2015/11/08,20:10,0.484,0.274,0.497,0.454,0.438,0.224,0.194,south-southwest,9.9,Yes
2015/11/08,20:20,0.488,0.272,0.493,0.458,0.441,0.224,0.193,south-southwest,9.0,Yes
2015/11/08,20:30,0.485,0.276,0.498,0.456,0.440,0.225,0.193,south-southwest,8.6,Yes
2015/11/08,20:40,0.490,0.273,0.493,0.458,0.442,0.225,0.194,south-southwest,9.9,Yes
2015/11/08,20:50,0.485,0.275,0.498,0.456,0.441,0.224,0.194,south-southwest,10.4,Yes
2015/11/08,21:00,0.488,0.274,0.496,0.458,0.440,0.225,0.194,south,6.9,Yes
2015/11/08,21:10,0.489,0.275,0.502,0.455,0.441,0.223,0.194,south-southwest,10.2,Yes
2015/11/08,21:20,0.487,0.275,0.495,0.459,0.441,0.225,0.193,south-southwest,9.7,Yes
2015/11/08,21:30,0.489,0.274,0.498,0.456,0.440,0.225,0.193,south-southwest,9.8,Yes
2015/11/08,21:40,0.488,0.274,0.495,0.460,0.441,0.223,0.192,south-southwest,8.3,Yes
2015/11/08,21:50,0.490,0.274,0.498,0.457,0.439,0.224,0.194,south-southwest,9.1,Yes
2015/11/08,22:00,0.485,0.273,0.497,0.460,0.441,0.224,0.191,south-southwest,10.4,Yes
2015/11/08,22:10,0.491,0.275,0.498,0.457,0.441,0.223,0.193,south-southwest,10.7,Yes
2015/11/08,22:20,0.485,0.274,0.499,0.458,0.443,0.223,0.192,south-southwest,10.1,Yes
2015/11/08,22:30,0.489,0.275,0.497,0.455,0.440,0.224,0.194,south-southwest,11.0,Yes
2015/11/08,22:40,0.486,0.272,0.499,0.459,0.444,0.224,0.193,south-southwest,10.3,Yes
2015/11/08,22:50,0.491,0.276,0.497,0.455,0.439,0.225,0.193,south-southwest,8.7,Yes
2015/11/08,23:00,0.485,0.274,0.500,0.461,0.444,0.224,0.193,south-southwest,8.8,Yes
2015/11/08,23:10,0.491,0.275,0.495,0.457,0.440,0.224,0.195,south-southwest,10.3,Yes
2015/11/08,23:20,0.486,0.272,0.500,0.460,0.444,0.223,0.194,south-southwest,8.3,Yes
2015/11/08,23:30,0.490,0.275,0.496,0.456,0.439,0.224,0.192,south-southwest,10.5,Yes
2015/11/08,23:40,0.488,0.273,0.500,0.460,0.444,0.223,0.193,south-southwest,9.7,Yes
2015/11/08,23:50,0.486,0.274,0.495,0.458,0.440,0.225,0.193,south-southwest,9.5,Yes
